User: anonymous   Login
Location: Bijele Vode
(45.2833°N, 16.2000°E)
Time: 21:57:27
(UTC+00:00)
Language:

CAS-4A - Orbit

View from above orbital plane
View from above orbital plane
View from above satellite
View from above satellite

Ground track
Ground track

The orbit data is extracted from the following two-line orbital elements,

1 42761U 17034D   21337.44989683  .00001529  00000-0  10394-3 0  9999
2 42761  43.0189 330.7075 0007211 146.1683 344.2884 15.10675381246701
Epoch (UTC): 03 December 2021 10:47:51
Eccentricity: 0.0007211
inclination: 43.0189°
perigee height: 529 km
apogee height: 539 km
right ascension of ascending node: 330.7075°
argument of perigee: 146.1683°
revolutions per day: 15.10675381
mean anomaly at epoch: 344.2884°
orbit number at epoch: 24670

The dashed part of the orbit path shows where the satellite is in the earth's shadow,  

DLR